Temperature
18 18 18 18 18 17 17 17 17 17 16 16 16 16 15 15 15 14 14 14 14 14 13 13 13 13 13 13 13 13 13 12 12 12 12 12 12 12 12 11 11 12 12
19 18 18 18 18 17 17 17 17 16 16 16 16 16 15 15 15 14 14 14 14 13 13 13 13 13 13 13 13 12 12 12 12 12 12 12 12 12 12 11 11 11 11
18 18 18 18 18 17 17 17 16 16 16 16 16 16 15 15 15 14 14 14 14 13 13 13 13 13 13 13 13 12 12 12 12 12 12 12 11 11 11 11 11 11 11
18 18 18 18 17 17 17 16 16 16 16 16 16 15 15 15 15 15 14 14 14 13 13 13 13 13 13 12 12 12 12 12 12 11 11 11 11 11 11 11 11 11 11
18 18 18 18 17 17 17 16 16 16 16 15 15 15 15 15 15 14 14 14 14 13 13 13 13 13 13 12 12 12 12 12 12 11 11 11 11 11 11 11 10 10 10
18 18 18 17 17 17 16 16 16 16 15 15 15 15 15 14 14 14 14 14 14 13 13 13 13 13 12 12 12 12 12 12 11 11 11 11 11 10 10 10 10 10 10
18 18 17 17 17 17 16 16 16 15 15 15 15 15 15 15 14 14 14 14 14 13 13 13 13 12 12 12 12 12 12 11 11 11 11 11 11 10 10 10 10 10 10
18 17 17 17 17 16 16 16 15 15 15 15 14 14 14 14 14 14 14 13 13 13 13 13 13 12 12 12 12 11 11 11 11 11 11 11 10 10 10 10 10 10 10
17 17 17 17 16 16 16 15 15 15 15 15 14 14 14 14 14 14 13 13 13 13 13 12 12 12 12 12 11 11 11 11 11 10 10 10 10 10 10 10 9 9 9
17 17 17 16 16 16 16 15 15 15 15 14 14 14 14 14 14 13 13 13 13 12 12 12 12 12 11 11 11 11 11 11 10 10 10 10 10 9 9 9 9 9 9
17 17 16 16 16 15 15 15 15 14 14 14 13 13 13 13 13 13 13 13 12 12 12 12 11 11 11 11 11 11 10 10 10 10 9 9 9 9 9 9 9 8 8
17 16 16 15 15 15 15 14 14 14 13 13 13 13 13 12 12 12 12 12 12 11 11 11 11 11 11 10 10 10 10 10 9 9 9 9 9 9 9 8 8 8 8
16 16 15 15 15 14 14 14 13 13 13 13 12 12 12 12 12 12 12 12 11 11 11 11 10 10 10 10 10 10 9 9 9 9 9 8 8 8 8 8 8 7 7
16 15 15 14 14 14 13 13 13 13 12 12 12 12 12 11 11 11 11 11 11 11 10 10 10 10 10 9 9 9 9 8 8 8 8 8 7 7 7 7 7 7 7
15 15 14 14 14 13 13 13 13 12 12 12 12 11 11 11 11 11 11 11 10 10 10 10 10 9 9 9 9 8 8 8 8 7 7 7 7 6 6 6 6 6 6
14 14 14 13 13 13 12 12 12 12 11 11 11 11 11 11 10 10 10 10 10 9 9 9 9 8 8 8 8 8 7 7 7 7 6 6 6 6 6 6 5 5 5
14 13 13 12 12 12 12 11 11 11 11 11 11 10 10 10 10 10 10 9 9 9 8 8 8 8 7 7 7 7 6 6 6 6 6 6 5 5 5 5 5 5 5
13 13 12 12 11 11 11 11 11 11 10 10 10 10 10 9 9 9 9 8 8 8 8 7 7 7 7 6 6 6 6 5 5 5 5 5 5 4 4 4 4 4 4
12 12 12 11 11 10 10 10 10 10 10 10 9 9 9 9 8 8 8 8 7 7 7 7 6 6 6 6 6 5 5 5 5 4 4 4 4 4 3 3 3 3 3
12 11 11 10 10 10 10 9 9 9 9 9 9 9 8 8 8 8 7 7 7 6 6 6 6 6 5 5 5 5 4 4 4 4 4 3 3 3 3 3 2 2 2
11 11 10 10 10 9 9 9 9 9 9 8 8 8 8 7 7 7 7 6 6 6 6 5 5 5 5 4 4 4 4 3 3 3 3 3 2 2 2 2 2 2 2
10 10 9 9 9 9 8 8 8 8 8 8 8 7 7 7 6 6 6 6 6 5 5 5 5 4 4 4 3 3 3 3 3 2 2 2 2 2 2 1 1 1 1
9 9 9 8 8 8 8 8 8 7 7 7 7 7 6 6 6 5 5 5 5 5 4 4 4 4 3 3 3 3 2 2 2 2 1 1 1 1 1 1 1 1 0
9 8 8 8 8 8 7 7 7 7 6 6 6 6 6 5 5 5 4 4 4 4 4 3 3 3 3 2 2 2 2 1 1 1 1 1 1 1 0 0 0 -0 -0
8 8 8 7 7 7 7 6 6 6 6 5 5 5 5 5 4 4 4 4 3 3 3 3 2 2 2 2 2 1 1 1 1 1 1 1 0 0 -0 -0 -0 -1 -1
8 7 7 7 6 6 6 6 5 5 5 5 4 4 4 4 4 3 3 3 3 2 2 2 2 2 1 1 1 1 1 1 1 1 0 0 -0 -0 -1 -1 -1 -1 -1
Wind_Speed
7 6 6 5 4 4 3 3 3 2 4 4 3 2 2 3 3 2 1 1 1 1 1 1 1 2 2 2 2 2 2 1 1 3 2 2 3 3 3 3 3 2 2
6 5 5 6 5 5 4 4 4 4 4 4 3 2 2 2 2 3 1 0 1 1 1 1 1 1 2 2 2 2 2 1 0 3 3 2 2 2 2 3 3 3 2
6 6 5 5 6 5 5 4 4 4 4 4 4 3 2 2 2 2 2 1 1 0 1 1 1 1 1 1 2 2 2 2 1 2 3 2 2 2 2 3 3 3 3
7 6 5 5 5 4 4 3 3 2 2 3 3 3 3 2 1 0 0 0 0 0 0 0 1 1 1 1 2 2 2 3 2 2 3 2 2 2 1 2 3 3 3
7 6 6 5 5 5 4 4 3 2 2 2 2 2 2 2 1 1 1 1 1 1 0 1 1 2 2 1 1 2 2 2 2 2 2 2 3 2 2 2 3 3 3
7 6 5 5 5 5 4 4 3 2 2 2 2 2 2 1 2 3 1 3 2 1 1 1 1 2 2 2 2 2 1 2 2 2 3 3 3 3 3 3 3 3 4
7 6 6 6 5 5 5 5 4 4 3 2 3 3 3 2 3 2 0 2 3 2 2 1 2 0 1 1 2 4 4 5 5 3 3 4 3 3 3 4 3 3 5
6 6 6 6 6 5 5 5 5 4 3 3 3 3 3 2 4 3 2 3 3 2 2 2 1 0 1 1 1 3 3 4 5 4 4 4 4 3 3 4 5 5 5
6 6 6 6 6 6 5 5 4 4 3 3 3 3 3 3 4 3 2 2 3 3 2 1 1 0 1 2 2 3 4 4 6 7 8 8 9 10 7 3 4 4 5
5 5 5 5 5 6 6 4 3 3 3 3 3 3 4 3 4 4 3 1 3 2 2 1 1 1 2 2 2 3 4 5 5 5 6 9 10 10 10 5 4 3 4
5 4 4 4 5 5 4 4 4 3 3 3 3 3 3 3 4 5 3 1 2 2 2 2 1 2 3 4 4 3 6 6 5 5 5 5 5 5 5 6 5 3 4
5 5 4 4 4 4 4 4 3 4 3 3 2 2 2 3 3 4 5 4 3 2 2 2 2 3 4 6 5 6 9 8 4 4 4 4 4 4 4 4 5 6 7
5 5 4 4 4 4 4 4 3 3 3 2 2 2 1 1 2 4 5 5 5 3 3 4 5 5 5 5 7 9 7 4 3 4 4 5 4 4 4 4 5 6 8
5 4 4 4 4 4 3 3 3 2 2 2 2 2 2 1 1 1 1 2 3 3 4 6 7 8 6 6 6 5 4 3 3 4 4 5 4 4 4 3 4 4 5
4 4 3 3 4 4 3 2 2 1 2 3 2 2 2 2 2 3 2 1 1 2 3 3 3 3 3 3 3 3 3 3 3 4 4 4 4 4 4 4 4 4 5
3 3 3 2 3 4 4 3 4 3 3 3 3 2 1 2 2 2 1 1 1 2 1 2 3 3 3 3 3 3 3 3 3 3 4 4 4 4 5 4 4 4 6
3 3 2 2 3 3 3 3 2 1 3 3 2 2 2 1 1 1 1 2 2 1 1 3 3 3 3 3 3 3 3 3 3 4 4 4 5 5 5 5 5 5 6
2 3 3 2 2 2 2 2 3 3 2 1 1 1 2 2 2 2 1 1 2 1 2 3 2 2 2 3 3 3 3 4 4 4 4 5 5 5 5 6 6 6 6
2 2 2 2 2 1 1 1 1 2 2 2 1 1 2 2 2 2 2 1 2 2 2 2 2 2 2 3 3 3 4 4 4 4 4 5 5 5 6 6 6 9 7
2 3 3 2 2 1 1 1 1 1 1 1 1 1 1 0 1 1 2 2 3 3 2 2 2 2 2 3 3 3 4 4 4 4 4 5 5 5 6 7 7 7 7
2 2 2 1 1 1 0 0 1 1 1 0 0 1 3 1 2 2 2 3 3 3 2 2 2 2 2 3 3 4 4 4 4 4 5 5 5 6 6 7 7 7 7
2 1 1 1 1 1 0 0 0 0 0 0 0 0 1 1 1 2 2 2 2 2 2 2 2 2 2 3 3 4 4 5 5 5 5 5 6 6 7 7 7 7 7
2 1 1 1 1 1 0 1 0 0 0 0 0 0 1 1 1 2 2 2 2 2 2 3 2 3 3 4 5 4 4 5 5 6 6 6 7 7 7 8 8 9 8
1 1 1 1 1 0 0 1 1 1 1 1 1 1 1 1 1 2 2 2 2 2 2 3 3 4 6 7 6 6 6 7 8 8 8 7 8 7 7 8 8 9 9
1 1 1 1 0 0 0 0 1 1 1 1 1 1 2 2 2 2 2 2 2 2 3 4 4 5 6 7 7 7 9 10 10 10 9 7 8 8 8 9 8 9 9
1 1 1 0 0 0 1 1 1 1 1 1 1 1 2 2 2 2 3 3 3 3 3 4 6 7 7 7 8 9 10 11 12 12 11 8 8 8 8 7 9 9 10
Wind_Direction
175 173 164 168 169 157 153 153 158 160 154 156 157 154 143 134 132 119 98 29 358 335 6 70 23 17 15 355 354 2 9 49 327 313 331 9 15 7 7 359 0 7 2
167 163 165 165 166 164 167 177 181 178 170 162 149 146 137 124 125 133 161 142 311 327 360 39 9 42 20 349 351 353 349 4 55 311 316 341 349 349 344 335 334 341 332
160 168 172 167 166 170 173 178 180 176 166 157 151 152 152 158 168 164 180 184 225 295 17 15 353 36 6 353 350 345 338 349 6 310 305 318 317 329 341 328 329 325 308
161 171 170 170 166 163 161 158 160 161 157 155 153 158 154 147 127 152 177 191 253 276 146 96 51 50 31 348 342 334 343 343 331 319 308 317 316 313 351 326 322 323 317
165 174 176 171 160 154 151 151 154 169 175 158 155 147 134 130 100 52 351 308 271 266 240 168 152 149 108 77 1 339 350 339 327 326 316 325 323 330 312 301 307 302 306
168 174 170 164 154 154 155 156 160 171 178 151 151 145 147 145 112 96 41 331 319 297 271 239 195 175 172 204 252 282 272 281 302 310 307 306 303 304 306 308 314 323 307
172 169 164 162 161 163 162 160 168 170 175 183 181 163 162 161 154 154 208 297 305 310 301 286 290 226 129 187 282 284 275 265 248 245 274 285 294 302 318 318 306 292 277
169 169 168 166 168 164 164 173 177 168 172 189 183 167 165 177 174 180 235 263 272 278 286 283 278 77 4 343 304 293 270 257 256 249 243 263 278 293 291 286 281 289 284
169 171 171 171 169 167 175 180 174 168 174 186 186 180 179 185 182 180 194 266 267 272 270 314 328 242 325 335 319 304 296 283 268 258 255 264 273 278 281 304 308 305 297
162 163 161 162 164 169 176 173 164 167 180 180 181 187 183 174 173 173 177 259 271 279 275 258 272 253 324 316 287 289 293 291 296 294 276 271 268 268 266 247 249 272 286
140 146 152 153 157 162 162 160 158 162 171 182 185 187 174 165 173 179 188 228 272 288 295 291 273 271 284 289 288 274 276 288 289 287 286 281 274 265 255 249 243 234 259
131 138 142 144 155 153 145 152 158 159 171 184 196 195 182 169 164 196 212 233 267 279 288 296 287 287 284 279 279 285 296 304 296 292 292 291 289 287 284 280 271 266 259
124 128 134 137 134 135 143 150 154 157 169 182 184 196 198 174 179 202 217 239 265 270 288 299 303 295 291 282 271 278 288 289 289 287 285 283 283 286 298 304 298 291 286
126 135 140 140 134 131 133 144 149 165 176 183 190 200 198 169 146 167 220 244 265 280 291 298 296 283 272 270 279 276 259 255 263 269 282 286 293 300 299 295 293 295 294
129 127 128 126 130 122 106 98 132 135 163 174 186 180 180 189 206 176 171 215 245 267 291 286 288 289 277 276 277 273 266 268 267 268 273 282 288 291 291 291 287 291 289
129 131 128 125 125 129 125 96 58 84 108 113 114 137 139 155 161 153 189 239 270 293 303 287 287 292 295 299 303 308 310 305 301 301 297 294 294 294 295 295 294 290 287
114 119 116 121 128 138 148 153 149 52 51 69 93 111 140 179 179 205 283 304 296 278 255 270 276 289 302 310 314 312 310 311 314 315 312 310 310 307 306 302 300 299 296
96 105 109 105 114 133 149 163 168 172 190 241 266 207 204 230 226 224 229 19 319 279 255 268 281 298 306 310 311 310 310 313 313 312 310 309 308 307 306 303 300 299 298
91 97 106 110 117 125 138 159 178 187 186 176 167 229 242 255 270 258 203 220 249 263 268 279 287 296 300 302 307 309 304 299 306 308 307 307 308 307 305 303 303 302 299
88 97 105 117 133 139 153 169 190 204 200 172 174 177 165 197 286 265 228 245 256 261 264 269 275 280 288 293 297 298 301 304 308 307 306 307 307 307 303 301 299 298 295
94 97 112 112 118 123 122 186 233 226 218 205 202 153 152 209 249 259 251 248 257 263 271 281 287 293 293 294 297 304 307 306 306 306 306 307 308 305 299 294 293 293 295
116 129 142 145 114 71 24 3 360 338 331 5 143 183 188 233 263 274 278 280 279 293 307 306 298 301 305 298 295 299 301 304 308 310 309 307 307 304 300 297 296 299 300
108 116 114 107 110 107 338 356 23 8 337 314 306 283 240 264 284 294 299 306 314 331 345 340 317 313 327 327 325 313 301 304 307 310 307 305 304 301 301 299 297 298 296
107 113 106 96 108 136 350 335 346 346 329 315 313 308 301 294 304 312 307 304 319 329 334 330 321 316 322 326 327 324 322 319 319 316 306 296 294 293 295 295 295 294 294
82 78 75 69 17 359 335 315 304 310 312 310 313 321 325 328 326 325 325 322 320 316 322 328 324 318 314 317 322 324 322 321 319 316 307 295 289 289 290 292 294 296 294
82 79 62 51 29 356 340 334 329 325 325 334 340 339 331 328 325 317 315 319 316 310 312 313 309 311 314 316 315 316 318 318 317 314 309 299 292 290 292 290 293 293 293
Height
1553 1554 1556 1558 1559 1560 1561 1561 1562 1563 1563 1564 1564 1564 1564 1564 1564 1564 1563 1563 1563 1563 1563 1563 1562 1562 1561 1561 1560 1560 1559 1559 1557 1556 1555 1554 1553 1551 1549 1547 1545 1544 1543
1551 1553 1554 1556 1557 1558 1559 1560 1561 1562 1562 1563 1563 1563 1563 1563 1563 1563 1563 1563 1563 1563 1562 1562 1562 1561 1561 1560 1560 1559 1558 1558 1557 1555 1554 1553 1552 1550 1548 1547 1545 1544 1542
1549 1551 1552 1554 1555 1556 1557 1558 1559 1560 1561 1562 1562 1562 1562 1562 1562 1562 1562 1562 1562 1562 1561 1561 1561 1560 1560 1559 1559 1558 1557 1556 1555 1554 1553 1552 1551 1549 1547 1546 1544 1543 1541
1546 1548 1550 1551 1553 1554 1555 1556 1557 1558 1559 1560 1561 1561 1561 1561 1561 1561 1561 1561 1561 1561 1561 1560 1560 1559 1559 1558 1557 1557 1556 1555 1554 1553 1551 1550 1549 1548 1546 1544 1542 1541 1540
1544 1545 1547 1549 1550 1551 1553 1554 1555 1556 1557 1558 1559 1559 1559 1560 1560 1560 1560 1560 1559 1559 1559 1559 1558 1558 1557 1557 1556 1555 1554 1553 1552 1551 1550 1548 1547 1546 1544 1542 1541 1539 1537
1541 1543 1545 1546 1548 1549 1550 1551 1552 1554 1555 1556 1556 1557 1557 1557 1558 1558 1558 1558 1558 1558 1558 1557 1557 1556 1555 1555 1554 1553 1553 1552 1550 1549 1548 1546 1545 1544 1542 1541 1539 1537 1534
1538 1540 1542 1543 1544 1546 1547 1548 1549 1551 1552 1553 1554 1554 1554 1555 1555 1556 1556 1556 1556 1556 1555 1555 1555 1554 1553 1552 1552 1551 1550 1549 1549 1548 1546 1545 1543 1542 1540 1538 1536 1534 1532
1535 1537 1539 1540 1541 1543 1544 1545 1546 1548 1549 1550 1550 1551 1552 1552 1553 1553 1553 1553 1553 1553 1553 1553 1552 1551 1550 1550 1548 1547 1547 1546 1545 1544 1543 1542 1541 1539 1538 1536 1534 1531 1529
1532 1534 1535 1537 1538 1539 1541 1542 1543 1544 1545 1547 1548 1548 1549 1549 1550 1550 1550 1550 1550 1550 1550 1550 1549 1549 1548 1547 1546 1544 1543 1542 1542 1541 1540 1538 1537 1536 1534 1533 1530 1528 1525
1529 1531 1533 1534 1535 1536 1538 1539 1540 1541 1542 1544 1544 1545 1546 1546 1547 1547 1547 1547 1547 1547 1546 1546 1546 1545 1545 1543 1542 1541 1539 1538 1538 1536 1535 1534 1533 1532 1531 1529 1527 1525 1522
1527 1529 1530 1531 1533 1534 1535 1536 1537 1538 1540 1541 1541 1542 1543 1543 1544 1544 1544 1544 1543 1543 1543 1542 1542 1541 1541 1540 1539 1537 1536 1535 1533 1532 1531 1530 1528 1527 1526 1525 1523 1522 1519
1525 1526 1527 1529 1530 1531 1532 1533 1535 1536 1537 1537 1538 1539 1540 1540 1540 1540 1540 1540 1540 1539 1539 1538 1538 1537 1537 1536 1535 1533 1532 1531 1529 1527 1526 1525 1524 1522 1521 1520 1518 1517 1515
1523 1524 1525 1526 1527 1528 1529 1530 1531 1533 1533 1534 1535 1535 1536 1536 1536 1537 1537 1536 1536 1536 1535 1535 1534 1533 1532 1531 1530 1529 1528 1526 1524 1523 1521 1520 1519 1518 1516 1515 1513 1511 1509
1521 1522 1523 1524 1525 1526 1527 1528 1529 1529 1530 1531 1531 1532 1532 1533 1533 1533 1533 1532 1532 1531 1531 1530 1530 1529 1528 1527 1526 1524 1523 1522 1520 1518 1517 1516 1514 1513 1511 1509 1507 1505 1503
1519 1520 1521 1522 1522 1523 1524 1525 1526 1527 1528 1528 1529 1529 1529 1529 1530 1530 1530 1529 1528 1528 1527 1526 1525 1524 1523 1522 1521 1520 1519 1518 1516 1514 1513 1511 1509 1508 1506 1504 1502 1500 1498
1516 1517 1518 1519 1520 1521 1522 1523 1523 1525 1525 1526 1526 1527 1526 1527 1527 1526 1526 1526 1525 1524 1524 1522 1521 1520 1519 1518 1517 1516 1515 1513 1512 1510 1509 1507 1505 1503 1501 1499 1497 1495 1492
1514 1515 1516 1517 1518 1518 1519 1520 1520 1521 1522 1522 1523 1523 1523 1523 1523 1523 1522 1522 1521 1521 1520 1519 1518 1517 1516 1515 1513 1512 1510 1509 1508 1506 1504 1502 1500 1498 1496 1494 1492 1489 1487
1512 1513 1514 1514 1515 1516 1517 1517 1518 1518 1518 1518 1519 1519 1520 1520 1519 1519 1519 1518 1517 1517 1516 1515 1514 1513 1512 1511 1509 1508 1506 1504 1503 1501 1499 1497 1495 1493 1491 1488 1486 1484 1481
1510 1511 1512 1512 1513 1514 1514 1515 1515 1516 1516 1515 1516 1516 1516 1516 1516 1515 1515 1514 1513 1512 1512 1511 1510 1509 1508 1506 1505 1503 1502 1500 1498 1496 1494 1492 1490 1488 1486 1483 1481 1479 1476
1507 1508 1509 1510 1511 1511 1512 1512 1513 1513 1513 1513 1513 1513 1512 1512 1512 1511 1511 1510 1509 1509 1508 1507 1505 1504 1503 1502 1500 1498 1497 1495 1493 1491 1489 1487 1485 1483 1480 1478 1475 1473 1470
1505 1506 1507 1508 1508 1509 1509 1510 1510 1510 1510 1510 1510 1510 1510 1509 1508 1507 1507 1506 1505 1504 1503 1502 1501 1500 1499 1497 1495 1494 1492 1490 1488 1486 1484 1482 1479 1477 1475 1472 1470 1467 1464
1503 1504 1505 1505 1506 1506 1507 1507 1507 1507 1507 1507 1506 1507 1506 1505 1504 1504 1503 1502 1501 1500 1499 1498 1496 1495 1493 1492 1490 1488 1486 1484 1482 1480 1478 1476 1473 1471 1469 1466 1463 1461 1458
1501 1502 1503 1503 1503 1504 1504 1504 1504 1504 1503 1503 1503 1502 1502 1501 1500 1500 1499 1498 1496 1495 1494 1492 1491 1490 1488 1487 1485 1483 1481 1479 1477 1475 1472 1469 1467 1465 1462 1460 1457 1454 1452
1499 1500 1500 1501 1501 1501 1501 1501 1501 1500 1500 1499 1499 1498 1498 1497 1496 1495 1494 1492 1491 1490 1489 1487 1486 1484 1483 1481 1479 1477 1475 1473 1471 1468 1466 1463 1460 1458 1455 1453 1450 1448 1445
1497 1497 1498 1498 1498 1498 1498 1497 1497 1497 1496 1496 1495 1494 1494 1493 1491 1490 1489 1488 1486 1485 1484 1482 1481 1479 1477 1475 1473 1471 1468 1466 1464 1461 1459 1456 1453 1451 1448 1446 1443 1441 1438
1494 1494 1495 1495 1495 1495 1494 1494 1494 1493 1492 1492 1491 1490 1489 1488 1487 1486 1484 1483 1482 1480 1478 1477 1475 1473 1471 1469 1466 1464 1462 1459 1457 1454 1452 1449 1446 1444 1441 1439 1436 1434 1431